| time (UTC) | temp F | wind direction | speed knots | gust knots | rain 1hr in | rain 24hr in | rain mn in | humidity % | barometer mb |
| 20260510051507 | 49 | 152 | 0.0 | 1.7 | 0.00 | 0.01 | 0.01 | 74 | 1015.3 |
| 20260510050010 | 49 | 133 | 1.7 | 2.6 | 0.00 | 0.01 | 0.01 | 73 | 1015.3 |
| 20260510044505 | 49 | 133 | 0.0 | 1.7 | 0.00 | 0.01 | 0.01 | 72 | 1015.3 |
| 20260510043005 | 50 | 130 | 0.9 | 2.6 | 0.00 | 0.01 | 0.01 | 73 | 1015.2 |
| 20260510041504 | 50 | 124 | 0.9 | 2.6 | 0.00 | 0.01 | 0.01 | 73 | 1015.2 |
| 20260510040002 | 51 | 126 | 0.9 | 2.6 | 0.00 | 0.01 | 0.01 | 73 | 1015.1 |
| 20260510034502 | 51 | 126 | 0.9 | 3.5 | 0.00 | 0.01 | 0.01 | 73 | 1015.1 |
| 20260510033108 | 52 | 142 | 2.6 | 4.3 | 0.00 | 0.01 | 0.01 | 73 | 1014.8 |
| 20260510031606 | 52 | 130 | 0.9 | 3.5 | 0.00 | 0.01 | 0.01 | 73 | 1014.7 |
| 20260510030059 | 54 | 138 | 0.9 | 3.5 | 0.00 | 0.01 | 0.01 | 71 | 1014.4 |
| 20260510024557 | 55 | 113 | 1.7 | 3.5 | 0.00 | 0.01 | 0.01 | 70 | 1014.2 |
| 20260510023055 | 57 | 122 | 0.0 | 3.5 | 0.00 | 0.01 | 0.01 | 68 | 1014.1 |
| 20260510021555 | 57 | 121 | 2.6 | 4.3 | 0.01 | 0.01 | 0.01 | 66 | 1014.1 |
| 20260510020053 | 59 | 108 | 4.3 | 8.7 | 0.01 | 0.01 | 0.01 | 60 | 1014.1 |
| 20260510014555 | 58 | 108 | 2.6 | 6.1 | 0.01 | 0.01 | 0.01 | 59 | 1014.2 |
| 20260510013106 | 58 | 149 | 1.7 | 3.5 | 0.01 | 0.01 | 0.01 | 58 | 1014.4 |
| 20260510011551 | 59 | 272 | 0.9 | 8.7 | 0.00 | 0.00 | 0.00 | 59 | 1014.5 |
| 20260510010048 | 63 | 340 | 1.7 | 3.5 | 0.00 | 0.00 | 0.00 | 45 | 1014.1 |
| 20260510004547 | 64 | 238 | 0.0 | 0.0 | 0.00 | 0.00 | 0.00 | 38 | 1014.0 |
| 20260510003050 | 64 | 225 | 0.0 | 3.5 | 0.00 | 0.00 | 0.00 | 39 | 1013.7 |
| 20260510001547 | 65 | 168 | 0.9 | 2.6 | 0.00 | 0.00 | 0.00 | 39 | 1013.7 |
| 20260510000046 | 65 | 212 | 0.9 | 3.5 | 0.00 | 0.00 | 0.00 | 39 | 1013.7 |
| 20260509234546 | 65 | 246 | 3.5 | 6.1 | 0.00 | 0.00 | 0.00 | 38 | 1013.6 |
| 20260509233045 | 65 | 228 | 0.9 | 4.3 | 0.00 | 0.00 | 0.00 | 39 | 1013.6 |
| 20260509231553 | 65 | 125 | 0.0 | 2.6 | 0.00 | 0.00 | 0.00 | 39 | 1013.6 |
| 20260509230044 | 65 | 123 | 0.9 | 2.6 | 0.00 | 0.00 | 0.00 | 38 | 1013.5 |
| 20260509224543 | 65 | 267 | 0.0 | 5.2 | 0.00 | 0.00 | 0.00 | 38 | 1013.6 |
| 20260509223145 | 65 | 213 | 2.6 | 7.0 | 0.00 | 0.00 | 0.00 | 39 | 1013.7 |
| 20260509221542 | 65 | 321 | 0.0 | 4.3 | 0.00 | 0.00 | 0.00 | 36 | 1013.5 |
| 20260509220041 | 65 | 236 | 3.5 | 7.8 | 0.00 | 0.00 | 0.00 | 36 | 1013.7 |
| 20260509214540 | 65 | 180 | 1.7 | 4.3 | 0.00 | 0.00 | 0.00 | 36 | 1013.8 |
| 20260509213039 | 65 | 194 | 1.7 | 6.1 | 0.00 | 0.00 | 0.00 | 36 | 1013.8 |
| 20260509211545 | 64 | 125 | 2.6 | 5.2 | 0.00 | 0.00 | 0.00 | 36 | 1014.0 |
| 20260509210040 | 64 | 20 | 1.7 | 4.3 | 0.00 | 0.00 | 0.00 | 35 | 1013.9 |
| 20260509204536 | 64 | 257 | 1.7 | 7.0 | 0.00 | 0.00 | 0.00 | 35 | 1013.9 |
| 20260509203036 | 64 | 259 | 2.6 | 6.1 | 0.00 | 0.00 | 0.00 | 35 | 1013.8 |
| 20260509201535 | 64 | 279 | 2.6 | 5.2 | 0.00 | 0.00 | 0.00 | 35 | 1013.7 |
| 20260509200038 | 63 | 72 | 3.5 | 7.0 | 0.00 | 0.00 | 0.00 | 35 | 1013.7 |
| 20260509194535 | 63 | 67 | 1.7 | 6.1 | 0.00 | 0.00 | 0.00 | 35 | 1013.8 |
| 20260509193033 | 63 | 236 | 1.7 | 5.2 | 0.00 | 0.00 | 0.00 | 35 | 1013.9 |
| 20260509191532 | 63 | 333 | 2.6 | 6.1 | 0.00 | 0.00 | 0.00 | 36 | 1013.8 |
| 20260509190031 | 63 | 315 | 0.0 | 3.5 | 0.00 | 0.00 | 0.00 | 36 | 1013.8 |
| 20260509184538 | 63 | 268 | 2.6 | 4.3 | 0.00 | 0.00 | 0.00 | 36 | 1013.7 |
| 20260509183030 | 63 | 345 | 2.6 | 6.1 | 0.00 | 0.00 | 0.00 | 35 | 1013.7 |
| 20260509181527 | 63 | 244 | 0.0 | 6.1 | 0.00 | 0.00 | 0.00 | 36 | 1013.5 |
| 20260509180025 | 63 | 275 | 0.9 | 6.1 | 0.00 | 0.00 | 0.00 | 36 | 1013.4 |
| 20260509174532 | 63 | 278 | 2.6 | 7.0 | 0.00 | 0.00 | 0.00 | 37 | 1013.4 |
| 20260509173022 | 63 | 15 | 1.7 | 5.2 | 0.00 | 0.00 | 0.00 | 37 | 1013.3 |
| 20260509171521 | 63 | 17 | 0.0 | 5.2 | 0.00 | 0.00 | 0.00 | 37 | 1013.2 |
| 20260509170020 | 62 | 297 | 2.6 | 7.0 | 0.00 | 0.00 | 0.00 | 37 | 1013.2 |
| 20260509164519 | 62 | 325 | 2.6 | 6.1 | 0.00 | 0.00 | 0.00 | 38 | 1013.2 |
| 20260509163027 | 61 | 243 | 2.6 | 7.8 | 0.00 | 0.00 | 0.00 | 38 | 1013.1 |
| 20260509161518 | 62 | 298 | 4.3 | 7.0 | 0.00 | 0.00 | 0.00 | 38 | 1013.0 |
| 20260509160015 | 62 | 246 | 2.6 | 5.2 | 0.00 | 0.00 | 0.00 | 40 | 1012.8 |
| 20260509154513 | 61 | 317 | 0.9 | 5.2 | 0.00 | 0.00 | 0.00 | 39 | 1012.7 |
| 20260509153009 | 60 | 355 | 4.3 | 8.7 | 0.00 | 0.00 | 0.00 | 43 | 1012.6 |
| 20260509151506 | 58 | 355 | 1.7 | 7.8 | 0.00 | 0.00 | 0.00 | 49 | 1012.6 |
| 20260509150002 | 56 | 319 | 1.7 | 3.5 | 0.00 | 0.00 | 0.00 | 52 | 1012.6 |
| 20260509144604 | 55 | 282 | 0.9 | 4.3 | 0.00 | 0.00 | 0.00 | 55 | 1012.5 |
| 20260509143100 | 53 | 305 | 1.7 | 4.3 | 0.00 | 0.00 | 0.00 | 57 | 1012.5 |
| 20260509141608 | 52 | 296 | 1.7 | 4.3 | 0.00 | 0.00 | 0.00 | 58 | 1012.4 |
| 20260509140103 | 51 | 295 | 1.7 | 4.3 | 0.00 | 0.00 | 0.00 | 59 | 1012.3 |
| 20260509134557 | 51 | 300 | 1.7 | 4.3 | 0.00 | 0.00 | 0.00 | 60 | 1012.2 |
| 20260509133055 | 50 | 308 | 1.7 | 4.3 | 0.00 | 0.00 | 0.00 | 60 | 1012.1 |
| 20260509131553 | 50 | 348 | 0.9 | 4.3 | 0.00 | 0.00 | 0.00 | 60 | 1011.9 |
| 20260509130051 | 49 | 325 | 1.7 | 4.3 | 0.00 | 0.00 | 0.00 | 60 | 1011.9 |
| 20260509124557 | 49 | 347 | 0.9 | 2.6 | 0.00 | 0.00 | 0.00 | 60 | 1011.6 |
| 20260509123055 | 49 | 42 | 0.9 | 3.5 | 0.00 | 0.00 | 0.00 | 60 | 1011.3 |
| 20260509121546 | 49 | 241 | 1.7 | 5.2 | 0.00 | 0.00 | 0.00 | 59 | 1011.3 |
| 20260509120043 | 49 | 11 | 2.6 | 5.2 | 0.00 | 0.00 | 0.00 | 58 | 1011.0 |
| 20260509114543 | 49 | 19 | 2.6 | 7.8 | 0.00 | 0.00 | 0.00 | 58 | 1010.8 |
| 20260509113050 | 49 | 5 | 4.3 | 8.7 | 0.00 | 0.00 | 0.00 | 57 | 1010.7 |
| 20260509111545 | 50 | 26 | 3.5 | 6.1 | 0.00 | 0.00 | 0.00 | 57 | 1010.3 |
| 20260509110033 | 50 | 17 | 3.5 | 7.8 | 0.00 | 0.00 | 0.00 | 57 | 1010.3 |
| 20260509104531 | 50 | 360 | 2.6 | 6.1 | 0.00 | 0.00 | 0.00 | 56 | 1010.3 |
| 20260509103029 | 51 | 31 | 3.5 | 8.7 | 0.00 | 0.00 | 0.00 | 55 | 1010.1 |
| 20260509101530 | 51 | 32 | 5.2 | 8.7 | 0.00 | 0.00 | 0.00 | 55 | 1009.9 |
| 20260509100023 | 52 | 11 | 4.3 | 6.1 | 0.00 | 0.00 | 0.00 | 55 | 1009.7 |
| 20260509094523 | 52 | 17 | 3.5 | 6.1 | 0.00 | 0.00 | 0.00 | 55 | 1009.7 |
| 20260509093018 | 51 | 360 | 2.6 | 4.3 | 0.00 | 0.00 | 0.00 | 58 | 1009.4 |
| 20260509091515 | 51 | 333 | 0.0 | 1.7 | 0.00 | 0.00 | 0.00 | 58 | 1009.4 |
| 20260509090011 | 52 | 360 | 1.7 | 4.3 | 0.00 | 0.00 | 0.00 | 55 | 1009.4 |
| 20260509084509 | 53 | 360 | 2.6 | 4.3 | 0.00 | 0.00 | 0.00 | 53 | 1009.2 |
| 20260509083008 | 54 | 111 | 0.9 | 1.7 | 0.00 | 0.00 | 0.00 | 54 | 1009.0 |
| 20260509081506 | 53 | 134 | 0.0 | 0.0 | 0.00 | 0.00 | 0.00 | 55 | 1008.9 |
| 20260509080001 | 54 | 135 | 0.9 | 2.6 | 0.00 | 0.00 | 0.00 | 54 | 1008.8 |
| 20260509074602 | 55 | 111 | 3.5 | 7.0 | 0.00 | 0.00 | 0.00 | 52 | 1008.7 |
| 20260509073106 | 55 | 103 | 3.5 | 7.0 | 0.00 | 0.00 | 0.00 | 51 | 1008.6 |
| 20260509071554 | 55 | 80 | 6.1 | 9.6 | 0.00 | 0.00 | 0.00 | 50 | 1008.4 |
| 20260509070051 | 55 | 80 | 5.2 | 7.8 | 0.00 | 0.00 | 0.00 | 50 | 1008.1 |
| 20260509064547 | 56 | 69 | 3.5 | 8.7 | 0.00 | 0.00 | 0.00 | 49 | 1008.0 |
| 20260509063043 | 56 | 62 | 4.3 | 9.6 | 0.00 | 0.00 | 0.00 | 47 | 1007.8 |
| 20260509061555 | 57 | 86 | 5.2 | 9.6 | 0.00 | 0.00 | 0.00 | 46 | 1007.8 |
| 20260509060037 | 57 | 94 | 5.2 | 9.6 | 0.00 | 0.00 | 0.00 | 45 | 1007.7 |
| 20260509054548 | 58 | 88 | 5.2 | 11.3 | 0.00 | 0.00 | 0.00 | 44 | 1007.7 |
| 20260509053052 | 58 | 360 | 7.0 | 12.2 | 0.00 | 0.00 | 0.00 | 43 | 1007.5 |